www.pogodaiklimat.ru

Погода и климат >> Архив погоды >> Япония >> Хиросима


АРХИВ ПОГОДЫ в Хиросиме

Время (UTC), дата Ветер
(напр.,м/с)
 
Видим.   Явления Облачность Т
(С)
Тd
(С)
f
(%)
Тe
(С)
Тes
(С)
Комфортность P
(гПа)
Po
(гПа)
Тmin
(С)
Tmax
(С)
R
(мм)
R24
(мм)
S
(см)
04 12.06 С 4 н/о н/о +26.9 +11.4 38 +28 +28 жарко 1008.0 1001.9
05 12.06 С 4 н/о н/о +27.5 +11.5 37 +28 +28 жарко 1007.7 1001.6
06 12.06 С 6 40 км 4/4
[Cu Sc]
+27.1 +9.5 33 +27 +31 жарко 1007.7 1001.6
07 12.06 С 6 н/о н/о +26.4 +8.9 33 +27 +27 жарко 1007.7 1001.6
08 12.06 С 5 н/о н/о +26.8 +9.7 34 +27 +27 жарко 1007.4 1001.3
09 12.06 С 6 40 км 1/1
[Cu Sc Ci fib]
+25.9 +9.7 36 +27 +27 жарко 1007.7 1001.6
10 12.06 СВ 6 н/о н/о +24.5 +10.4 41 +26 +26 жарко 1008.4 1002.2
11 12.06 С 6 н/о н/о +23.2 +11.6 48 +26 +26 жарко 1009.3 1003.1
12 12.06 С 4 30 км 1/1
[Cu hum Ci fib]
+22.1 +12.1 53 +24 +24 комфорт 1010.3 1004.1 +28.1
13 12.06 С 5 н/о н/о +21.2 +12.1 56 +23 +23 комфорт 1011.0 1004.7
14 12.06 СВ 6 н/о н/о +20.3 +12.3 60 +22 +22 комфорт 1011.1 1004.8
15 12.06 С 5 н/о н/о +19.7 +12.2 62 +21 +21 комфорт 1010.9 1004.6
16 12.06 С 5 н/о н/о +19.0 +12.5 66 +20 +20 по сезону 1010.9 1004.6
17 12.06 С 3 н/о н/о +18.5 +12.5 68 +19 +19 по сезону 1010.9 1004.6
18 12.06 С 4 20 км 1/0
[Ac trans]
+18.3 +12.3 68 +18 +18 прохладно 1011.1 1004.8
19 12.06 С 3 н/о н/о +17.8 +12.3 70 +18 +18 холодно 1010.9 1004.6
20 12.06 С 4 н/о н/о +17.3 +12.2 72 +17 +17 холодно 1011.3 1004.9
21 12.06 С 5 30 км 1/0
[Ac trans]
+17.3 +12.0 71 +17 +17 холодно 1011.8 1005.4
22 12.06 С 3 н/о н/о +17.9 +11.9 68 +18 +18 очень
холодно
1012.1 1005.8
23 12.06 С 3 н/о н/о +20.4 +11.9 58 +23 +23 комфорт 1012.5 1006.2
00 13.06 СЗ 2 30 км 1/1
[Cu hum]
+22.9 +12.2 51 +26 +36 жарко 1012.3 1006.1 +17.1
01 13.06 СЗ 1 н/о н/о +24.5 +13.7 51 +27 +27 жарко 1012.0 1005.8
02 13.06 В 2 н/о н/о +25.9 +12.4 43 +27 +27 жарко 1011.4 1005.2
03 13.06 Ю 4 40 км 3/3
[Cu med, cong Ci fib]
+26.2 +12.7 43 +28 +39 жарко 1011.0 1004.9
04 13.06 ЮЗ 5 н/о н/о +26.4 +14.2 47 +29 +29 жарко 1010.4 1004.3
05 13.06 ЮЗ 3 н/о н/о +27.7 +11.7 37 +29 +29 жарко 1009.7 1003.6
06 13.06 ЮЗ 4 40 км 3/1
[Cu med, cong Ci sp]
+27.4 +11.0 36 +28 +37 жарко 1009.5 1003.4
07 13.06 ЮЗ 4 н/о н/о +28.2 +11.7 36 +29 +29 жарко 1009.3 1003.2
08 13.06 Ю 4 н/о н/о +26.9 +12.2 40 +28 +28 жарко 1008.8 1002.7
09 13.06 ЮЗ 5 40 км 6/3
[Cu hum Ci sp]
+25.9 +13.1 45 +28 +28 жарко 1009.0 1002.9
10 13.06 ЮЗ 5 н/о н/о +24.6 +13.2 49 +27 +27 жарко 1009.8 1003.6
11 13.06 ЮЗ 4 н/о н/о +24.4 +12.4 47 +26 +26 жарко 1010.5 1004.3
12 13.06 Ю 2 30 км 8/3
[Cu hum Ci sp]
+24.4 +13.0 49 +26 +26 жарко 1010.9 1004.7 +28.5
13 13.06 Ю 2 н/о н/о +24.2 +13.1 50 +26 +26 жарко 1011.3 1005.1
14 13.06 Ю 1 н/о н/о +23.9 +13.8 53 +26 +26 жарко 1011.2 1005.0
15 13.06 С 1 н/о н/о +23.1 +14.7 59 +27 +27 душно 1011.0 1004.8
16 13.06 С 3 н/о н/о +21.9 +13.5 59 +25 +25 комфорт 1010.4 1004.2
17 13.06 С 5 н/о н/о +21.1 +13.6 62 +24 +24 комфорт 1009.9 1003.6
18 13.06 С 4 30 км 9/0
[Ci sp]
+20.6 +13.6 64 +23 +23 комфорт 1009.7 1003.4
19 13.06 С 4 н/о н/о +20.1 +13.6 66 +22 +22 комфорт 1009.6 1003.3
20 13.06 С 5 н/о н/о +19.7 +13.4 67 +21 +21 комфорт 1009.3 1003.0
21 13.06 С 6 30 км 9/0
[Ci sp]
+19.8 +13.5 67 +21 +22 комфорт 1008.8 1002.5
22 13.06 С 4 н/о н/о +20.5 +13.7 65 +23 +23 комфорт 1009.0 1002.7
23 13.06 С 3 н/о н/о +22.6 +13.7 57 +26 +26 жарко 1008.6 1002.4
00 14.06 С 3 30 км 9/1
[Cu med, cong Ac trans Ci sp]
+24.4 +13.3 50 +27 +32 жарко 1007.6 1001.4 +19.5
02 14.06 ЮВ 4 н/о н/о +25.4 +13.3 47 +27 +27 жарко 1007.5 1001.4
03 14.06 В 2 20 км слаб. ливневой дождь 10/3
[Cu med, cong Ac As]
+25.1 +15.2 54 +28 +32 жарко 1006.9 1000.8
04 14.06 В 2 н/о н/о +23.1 +16.9 68 +28 +28 душно 1007.1 1000.9
05 14.06 С 2 н/о н/о +21.8 +17.2 75 +26 +26 душно 1005.9 999.7
06 14.06 С 3 9000 м слаб. ливневой дождь 10/6
[Cu med, cong Ac As]
+21.9 +18.1 79 +27 +28 душно 1005.2 999.0 2
07 14.06 С 3 н/о н/о +22.1 +17.7 76 +27 +27 душно 1004.3 998.1
08 14.06 С 1 н/о н/о +22.5 +18.3 77 +28 +28 душно 1003.5 997.3
09 14.06 С 2 9000 м слаб. дождь 10/6
[Frnb Ac As]
+22.5 +18.7 79 +28 +28 душно 1003.1 996.9
10 14.06 СВ 3 н/о н/о +22.8 +18.1 75 +28 +28 душно 1003.1 996.9
11 14.06 С 4 н/о н/о +22.4 +17.3 73 +27 +27 душно 1002.3 996.1
12 14.06 С 3 10 км в посл. час дождь 10/8
[Cu Sc Ac As]
+22.0 +18.0 78 +27 +27 душно 1002.1 995.9 +25.8 2
13 14.06 СВ 3 н/о н/о +22.0 +17.2 74 +26 +26 душно 1001.8 995.6
14 14.06 СВ 3 н/о н/о +22.1 +15.5 66 +26 +26 душно 1001.8 995.6
15 14.06 СВ 4 н/о н/о +21.9 +14.3 62 +25 +25 комфорт 1000.6 994.4
16 14.06 СВ 3 н/о н/о +21.0 +14.7 67 +25 +25 комфорт 999.2 993.0
17 14.06 СВ 3 н/о н/о +20.1 +15.3 74 +23 +23 комфорт 998.2 992.0
18 14.06 СВ 4 15 км слаб. дождь 10/9
[Cu Sc Ac As]
+19.9 +14.9 73 +22 +22 комфорт 997.8 991.6 1
19 14.06 СВ 4 н/о н/о +19.3 +15.6 79 +21 +21 комфорт 997.1 990.9
20 14.06 С 4 н/о н/о +19.1 +15.8 81 +21 +21 комфорт 996.5 990.3
21 14.06 С 3 20 км слаб. ливневой дождь 10/8 200 м
[Cu med, cong Ac As]
+19.2 +16.1 82 +21 +21 комфорт 996.2 990.0
22 14.06 С 4 н/о н/о +19.5 +16.2 81 +21 +21 комфорт 995.8 989.6
23 14.06 СВ 4 н/о н/о +19.6 +15.7 78 +22 +22 комфорт 995.7 989.5
00 15.06 С 4 15 км слаб. ливневой дождь 10/9 200 м
[Cu med, cong Ac As]
+19.3 +16.7 85 +21 +21 комфорт 994.6 988.4 +18.9 7
01 15.06 С 5 н/о н/о +19.1 +16.7 86 +20 +20 очень
холодно
994.4 988.2
02 15.06 С 5 н/о н/о +19.3 +17.3 88 +21 +21 комфорт 993.6 987.4
03 15.06 С 4 10 км ливневой дождь {гроза} 10/10
[Cu med, cong]
+19.3 +17.3 88 +21 +21 комфорт 993.1 986.9
04 15.06 С 3 н/о н/о +19.3 +17.3 88 +22 +22 комфорт 992.5 986.3
05 15.06 З 1 н/о н/о +19.4 +17.6 89 +23 +23 комфорт 992.3 986.1
06 15.06 ЮЗ 3 8000 м слаб. ливневой дождь {гроза} 10/10 100 м
[Cu med, cong]
+19.1 +17.3 89 +21 +21 комфорт 992.2 986.0 24
07 15.06 ЮЗ 2 н/о н/о +19.4 +17.6 89 +22 +22 комфорт 992.2 986.0
08 15.06 ЮЗ 3 н/о н/о +19.5 +17.5 88 +22 +22 комфорт 992.4 986.2
09 15.06 ЮЗ 1 10 км слаб. ливневой дождь 10/10 100 м
[Cu med, cong]
+19.9 +17.9 88 +24 +24 комфорт 993.0 986.8
10 15.06 ЮЗ 2 н/о н/о +20.1 +17.5 85 +24 +24 комфорт 994.0 987.8
11 15.06 ЮЗ 2 н/о н/о +20.1 +17.3 84 +24 +24 комфорт 994.8 988.6
12 15.06 ЮЗ 1 15 км {ливн. осадки} 9/9
[Cu med, cong]
+20.0 +17.6 86 +24 +24 комфорт 995.9 989.7 +20.3 27
13 15.06 ЮЗ 1 н/о н/о +19.9 +17.7 87 +24 +24 комфорт 996.7 990.5
14 15.06 ЮЗ 2 н/о н/о +19.9 +17.3 85 +23 +23 комфорт 997.4 991.2
15 15.06 Ю 2 н/о н/о +19.7 +17.1 85 +23 +23 комфорт 998.2 992.0
16 15.06 ЮВ 2 н/о н/о +19.2 +17.2 88 +22 +22 комфорт 998.9 992.7
17 15.06 ЮВ 2 н/о н/о +19.2 +17.2 88 +22 +22 комфорт 998.9 992.7
18 15.06 СВ 1 20 км в посл. час ливневой дождь 9/8
[Cu med, cong Ac As]
+18.9 +17.1 89 +21 +21 комфорт 999.2 993.0 0.0
19 15.06 СВ 1 н/о н/о +18.6 +16.9 90 +21 +21 комфорт 999.8 993.5
20 15.06 З 1 н/о н/о +18.2 +16.7 91 +20 +20 прохладно 1001.0 994.7
21 15.06 СВ 2 20 км слаб. ливневой дождь 9/9
[Cu med, cong]
+18.5 +16.7 89 +20 +20 прохладно 1001.9 995.6
22 15.06 С 3 н/о н/о +18.3 +16.5 89 +19 +19 очень
холодно
1002.7 996.4
23 15.06 СВ 1 н/о н/о +19.3 +16.9 86 +23 +23 комфорт 1003.4 997.1
00 16.06 СВ 1 20 км слаб. ливневой дождь 9/9 200 м
[Cu med, cong]
+19.6 +16.5 82 +23 +24 комфорт 1004.0 997.7 +18.2 0.5
01 16.06 В 2 н/о н/о +21.1 +15.7 71 +24 +24 комфорт 1004.1 997.9
02 16.06 СВ 3 н/о н/о +21.0 +14.9 68 +24 +24 комфорт 1004.6 998.4
03 16.06 С 3 30 км слаб. ливневой дождь 8/8
[Cu med, cong]
+22.2 +14.3 61 +25 +29 комфорт 1005.0 998.8
04 16.06 С 5 н/о н/о +24.1 +12.1 47 +26 +26 жарко 1005.1 998.9
05 16.06 С 5 н/о н/о +24.6 +11.9 45 +26 +26 жарко 1005.5 999.4
06 16.06 С 6 40 км {ливн. осадки} 8/6
[Cu med, cong Ci fib]
+25.0 +11.2 42 +26 +28 жарко 1006.2 1000.1 0.0
07 16.06 С 7 н/о н/о +24.2 +11.2 44 +26 +26 жарко 1007.0 1000.8
08 16.06 С 6 н/о н/о +23.4 +11.1 46 +26 +26 жарко 1007.3 1001.1
09 16.06 С 4 40 км 9/4
[Cu med, cong Ac As Ci fib]
+22.4 +11.5 50 +25 +25 комфорт 1008.2 1002.0
10 16.06 С 4 н/о н/о +21.6 +10.8 50 +23 +23 комфорт 1008.8 1002.6
11 16.06 С 3 н/о н/о +21.1 +11.4 54 +23 +23 комфорт 1009.5 1003.2
12 16.06 С 2 40 км 9/3
[Cu Sc Ac As Ci fib]
+20.6 +12.1 58 +23 +23 комфорт 1010.5 1004.2 +25.7 0.0
13 16.06 СВ 3 н/о н/о +19.9 +13.1 65 +22 +22 комфорт 1011.4 1005.1
14 16.06 С 2 н/о н/о +19.5 +13.5 68 +22 +22 комфорт 1011.5 1005.2
15 16.06 СВ 3 н/о н/о +18.8 +13.2 70 +20 +20 прохладно 1011.6 1005.3
16 16.06 С 4 н/о н/о +18.2 +13.5 74 +18 +18 прохладно 1011.7 1005.4
17 16.06 С 5 н/о н/о +17.6 +13.3 76 +17 +17 прохладно 1011.9 1005.5
18 16.06 С 3 40 км 8/1
[Sc Ac trans]
+17.6 +13.1 75 +18 +18 прохладно 1011.8 1005.4
19 16.06 С 3 н/о н/о +17.4 +12.9 75 +17 +17 очень
холодно
1012.6 1006.2
20 16.06 С 5 н/о н/о +16.8 +13.0 78 +16 +16 очень
холодно
1012.9 1006.5
21 16.06 С 4 30 км 9/1 300 м
[St Ac trans Ci sp]
+17.1 +12.8 76 +17 +17 холодно 1012.8 1006.4
22 16.06 С 2 н/о н/о +18.0 +12.9 72 +19 +19 очень
холодно
1013.4 1007.0
23 16.06 С 2 н/о н/о +19.8 +13.0 65 +22 +22 комфорт 1013.8 1007.5
00 17.06 ЮВ 2 40 км 9/1
[Cu hum Ac trans Ci fib]
+21.1 +12.3 57 +23 +30 комфорт 1013.8 1007.5 +16.8
01 17.06 Ю 2 н/о н/о +22.5 +12.2 52 +25 +25 комфорт 1013.6 1007.4
02 17.06 ЮЗ 4 н/о н/о +23.2 +11.9 49 +26 +26 жарко 1013.8 1007.6
03 17.06 Ю 3 40 км 9/3
[Cu med, cong Ci sp]
+23.9 +11.3 45 +25 +36 комфорт 1013.3 1007.1
04 17.06 ЮЗ 3 н/о н/о +25.1 +12.3 45 +27 +27 жарко 1012.8 1006.6
05 17.06 ЮЗ 4 н/о н/о +25.7 +13.2 46 +28 +28 жарко 1012.2 1006.0
06 17.06 ЮЗ 5 40 км 3/3
[Cu med, cong Ac trans Ci fib]
+25.1 +12.3 45 +27 +32 жарко 1011.9 1005.7 0.0
07 17.06 ЮЗ 4 н/о н/о +24.0 +12.6 49 +26 +26 жарко 1011.6 1005.4
08 17.06 ЮЗ 3 н/о н/о +24.0 +13.9 53 +26 +26 жарко 1011.4 1005.2
09 17.06 ЮЗ 3 40 км 8/8
[Cu Sc Ci fib]
+24.2 +13.7 52 +26 +27 жарко 1011.5 1005.3
10 17.06 ЮЗ 2 н/о н/о +23.5 +14.0 55 +26 +26 жарко 1011.9 1005.7
11 17.06 ЮЗ 2 н/о н/о +23.3 +13.5 54 +27 +27 душно 1012.2 1006.0
12 17.06 СВ 1 30 км 9/1
[Cu hum Ac trans Ci sp]
+22.9 +14.2 58 +26 +26 жарко 1012.7 1006.5 +26.3
13 17.06 СЗ 1 н/о н/о +22.6 +14.7 61 +26 +26 жарко 1013.3 1007.1
14 17.06 С 2 н/о н/о +21.9 +15.0 65 +25 +25 комфорт 1013.7 1007.4
15 17.06 С 3 н/о н/о +21.1 +15.2 69 +24 +24 комфорт 1013.5 1007.2
16 17.06 С 3 н/о н/о +20.5 +15.3 72 +24 +24 комфорт 1013.3 1007.0
18 17.06 С 2 30 км 9/0
[Ac trans Ci sp]
+19.6 +15.3 76 +22 +22 комфорт 1012.7 1006.4
19 17.06 С 2 н/о н/о +19.4 +15.1 76 +22 +22 комфорт 1012.8 1006.5
20 17.06 С 4 н/о н/о +19.2 +15.1 77 +21 +21 комфорт 1013.0 1006.7
21 17.06 С 4 30 км 9/0
[Ac trans Ci sp]
+19.2 +15.1 77 +21 +21 комфорт 1013.4 1007.1
22 17.06 С 2 н/о н/о +19.8 +15.0 74 +22 +22 комфорт 1013.2 1006.9
23 17.06 СЗ 2 н/о н/о +20.7 +15.1 70 +24 +24 комфорт 1013.2 1006.9
00 18.06 ЮЗ 2 15 км 10/1
[Cu hum Ac trans Cs]
+21.8 +14.9 65 +25 +31 комфорт 1012.8 1006.5 +19.0
01 18.06 ЮЗ 2 н/о н/о +22.5 +15.1 63 +26 +26 жарко 1012.7 1006.5
02 18.06 Ю 2 н/о н/о +22.7 +14.8 61 +26 +26 жарко 1012.6 1006.4
03 18.06 Ю 3 15 км 10/1
[Cu hum Ac trans Cs]
+23.2 +14.5 58 +27 +35 душно 1012.3 1006.1
04 18.06 Ю 4 н/о н/о +23.7 +14.7 57 +26 +26 жарко 1011.9 1005.7
05 18.06 Ю 4 н/о н/о +23.9 +14.6 56 +27 +27 жарко 1011.4 1005.2
06 18.06 Ю 4 20 км 9/1
[Cu Sc Ac As Ci sp]
+24.5 +14.3 53 +27 +31 жарко 1010.8 1004.6
07 18.06 Ю 3 н/о н/о +24.8 +14.6 53 +27 +27 жарко 1010.5 1004.3
08 18.06 Ю 3 н/о н/о +24.8 +14.0 51 +27 +27 жарко 1010.2 1004.0
09 18.06 Ю 4 20 км 8/1
[Cu hum Ci fib]
+24.5 +13.4 50 +27 +27 жарко 1010.1 1003.9
10 18.06 Ю 3 н/о н/о +23.7 +13.3 52 +26 +26 жарко 1010.5 1004.3
11 18.06 Ю 2 н/о н/о +23.2 +13.1 53 +26 +26 жарко 1010.5 1004.3
12 18.06 ЮВ 2 20 км 9/1
[Cu hum Ci sp]
+22.8 +13.0 54 +26 +26 жарко 1010.9 1004.7 +25.6
13 18.06 Ю 3 н/о н/о +22.5 +13.0 55 +25 +25 комфорт 1010.8 1004.6
14 18.06 Ю 2 н/о н/о +22.2 +13.0 56 +25 +25 комфорт 1010.9 1004.7
15 18.06 Ю 2 н/о н/о +21.8 +13.7 60 +25 +25 комфорт 1010.6 1004.4
16 18.06 С 2 н/о н/о +21.2 +14.6 66 +24 +24 комфорт 1010.4 1004.1
17 18.06 С 2 н/о н/о +20.7 +14.6 68 +24 +24 комфорт 1009.6 1003.3
18 18.06 С 2 20 км {ливн. осадки} 9/5
[Cu med, cong Ci sp]
+20.0 +15.7 76 +23 +23 комфорт 1009.2 1002.9 0.0
19 18.06 С 3 н/о н/о +19.5 +15.6 78 +22 +22 комфорт 1009.2 1002.9
20 18.06 С 3 н/о н/о +19.0 +15.5 80 +20 +20 прохладно 1009.2 1002.9
21 18.06 С 4 10 км 9/3 100 м
[St Ci sp]
+19.0 +15.5 80 +20 +21 прохладно 1009.1 1002.8
22 18.06 С 4 н/о н/о +19.8 +15.7 77 +22 +22 комфорт 1008.8 1002.5
23 18.06 С 3 н/о н/о +21.3 +14.9 67 +24 +24 комфорт 1008.3 1002.1
00 19.06 С 2 20 км 9/0
[Ci sp]
+23.2 +15.3 61 +27 +37 душно 1008.1 1001.9 +18.9 0.0
01 19.06 З 1 н/о н/о +25.5 +14.0 49 +28 +28 жарко 1007.7 1001.6
02 19.06 Ю 2 н/о н/о +25.7 +11.1 40 +27 +27 жарко 1007.1 1001.0
03 19.06 ЮЗ 3 20 км 9/1
[Cu hum Ci fib]
+26.7 +11.6 39 +28 +41 жарко 1006.6 1000.5
04 19.06 ЮЗ 2 н/о н/о +28.0 +12.4 38 +29 +29 жарко 1005.5 999.4

 

Местоположение метеостанции Хиросима (Япония): широта 34.40 долгота 132.46 высота над уровнем моря 53 м.

В архиве по умолчанию представлена погода в Хиросиме за последнюю неделю. Архивные данные за месяц целиком и за предыдущие месяцы, начиная с января 2011 года, Вы можете получить, выбрав интересующий диапазон дат из раскрывающегося списка и нажав кнопку "Ввод!".


*Определитесь, кто Вы:
робот инопланетянин человек

Внимание! Время в таблицах - всемирное. Для получения местного времени необходимо прибавить поправку, которая равна 9 ч.

Смотрите также архив погоды в соседних городах и на ближайших метеорологических станциях:

Погода в Куре (Япония) (21 км)
Погода в Хамаде (Япония) (67 км)
Погода в Мацуяме (Япония) (68 км)
Погода в Фукуяме (Япония) (73 км)
Погода в Ямагути (Япония) (96 км)
Погода в Хаги (Япония) (97 км)
Погода в Тадоцу (Япония) (119 км)
Погода в Мацуэ (Япония) (129 км)
Погода в Увадзиме (Япония) (130 км)
Погода в Окаяме (Япония) (136 км)

Пояснения к столбцам:

Ветер - указаны скорость ветра в м/с - средняя за 10 мин, порывы в срок и между сроками (в фигурных скобках) и направление, откуда дует ветер: С - северный, СВ - северо-восточный, В - восточный, ЮВ - юго-восточный, Ю - южный, ЮЗ - юго-западный, З - западный, СЗ - северо-западный.
Видимость - горизонтальная дальность видимости в метрах или километрах. При видимости от 1 до 10 км при отсутствии осадков обычно наблюдается дымка, при ухудшении видимости до 1 км и менее - туман. В сухую погоду видимость может ухудшаться дымом, пылью или мглою.
Явления - указаны атмосферные явления, наблюдавшиеся в срок или в последний час перед сроком; фигурными скобками обозначены явления, наблюдавшиеся между сроками (за 1-3 часа до срока); квадратными скобками обозначены град или гололедные отложения с указанием их диаметра в мм.
Облачность - указаны через наклонную черту общая и нижняя облачность в баллах и высота нижней границы облаков в метрах; квадратными скобками обозначены формы облаков: Ci - перистые, Cs - перисто-слоистые, Cc - перисто-кучевые, Ac - высококучевые, As - высокослоистые, Sc - слоисто-кучевые, Ns - слоисто-дождевые, Cu - кучевые, Cb - кучево-дождевые. Подробнее классификацию облаков см. в Атласе облаков (PDF).
T - Температура воздуха - температура, измеренная на высоте 2 м над землей.
Td - Температура точки росы - температура, при понижении до которой содержащийся в воздухе водяной пар достигнет насыщения.
f - Относительная влажность воздуха - влажноcть воздуха, измеренная на высоте 2 м над землей.
Te - Эффективная температура - температура, которую ощущает одетый по сезону человек в тени. Характеристика душности погоды. При расчете учитывается влияние влажности воздуха и скорости ветра на теплоощущения человека.
Tes - Эффективная температура на солнце - температура, которую ощущает человек, с поправкой на солнечный нагрев. Характеристика знойности погоды. Зависит от высоты солнца над горизонтом, облачности и скорости ветра. Ночью, в пасмурную погоду, а также при ветре 12 м/с и более поправка равна нулю.
P - Атмосферное давление - приведенное к уровню моря атмосферное давление.
Po - Атмосферное давление - измеренное на уровне метеостанции атмосферное давление.
Tmin - Минимальная температура - минимум температуры воздуха на высоте 2 м над землей.
Tmax - Максимальная температура - максимум температуры воздуха на высоте 2 м над землей.
R - Количество осадков - Количество выпавших осадков за период времени, мм. При наведении курсора мыши на число - период времени, за который выпало указанное количество осадков.
R24 - Количество осадков - Количество выпавших осадков за 24 часа, мм.
S - Снежный покров - Высота снежного покрова, см. При наведении курсора мыши на число - состояние снежного покрова и степень покрытия местности в баллах.